Time,TemperatureF,DewpointF,PressureIn,WindDirection,WindDirectionDegrees,WindSpeedMPH,WindSpeedGustMPH,Humidity,HourlyPrecipIn,Conditions,Clouds,dailyrainin,SoftwareType,DateUTC
2014-04-17 00:03:00,46.2,39.4,30.07,South,171,6.7,11.0,77,0.00,,CLR,0.00,VWS V15.00,2014-04-17 05:03:00,
2014-04-17 00:08:00,46.2,39.4,30.07,South,171,10.1,10.1,77,0.00,,CLR,0.00,VWS V15.00,2014-04-17 05:08:00,
2014-04-17 00:13:00,46.2,39.4,30.07,SSW,200,6.3,8.7,77,0.00,,CLR,0.00,VWS V15.00,2014-04-17 05:13:00,
2014-04-17 00:18:00,46.0,39.2,30.07,SE,138,11.0,11.0,77,0.00,,CLR,0.00,VWS V15.00,2014-04-17 05:18:00,
2014-04-17 00:23:00,46.0,39.2,30.07,South,187,11.0,11.0,77,0.00,,CLR,0.00,VWS V15.00,2014-04-17 05:23:00,
2014-04-17 00:28:00,46.2,39.4,30.07,SSW,193,10.1,10.1,77,0.00,,CLR,0.00,VWS V15.00,2014-04-17 05:28:00,
2014-04-17 00:33:00,46.2,39.4,30.07,South,180,10.5,12.3,77,0.00,,CLR,0.00,VWS V15.00,2014-04-17 05:33:00,
2014-04-17 00:38:00,46.0,39.2,30.07,SE,146,8.1,9.6,77,0.00,,CLR,0.00,VWS V15.00,2014-04-17 05:38:00,
2014-04-17 00:43:00,46.0,39.2,30.07,SSE,152,5.8,5.8,77,0.00,,CLR,0.00,VWS V15.00,2014-04-17 05:43:00,
2014-04-17 00:48:00,46.0,39.2,30.07,South,176,6.7,6.7,77,0.00,,CLR,0.00,VWS V15.00,2014-04-17 05:48:00,
2014-04-17 00:53:00,45.9,39.1,30.07,SSE,154,7.6,8.1,77,0.00,,CLR,0.00,VWS V15.00,2014-04-17 05:53:00,
2014-04-17 00:58:00,45.9,39.1,30.07,SSE,149,12.3,12.3,77,0.00,,CLR,0.00,VWS V15.00,2014-04-17 05:58:00,
2014-04-17 01:03:00,45.9,39.1,30.07,SSE,152,5.8,7.2,77,0.00,,CLR,0.00,VWS V15.00,2014-04-17 06:03:00,
2014-04-17 01:08:00,45.9,39.1,30.07,South,170,10.5,10.5,77,0.00,,CLR,0.00,VWS V15.00,2014-04-17 06:08:00,
2014-04-17 01:13:00,45.9,39.1,30.07,South,172,5.8,10.1,77,0.00,,CLR,0.00,VWS V15.00,2014-04-17 06:13:00,
2014-04-17 01:18:00,45.9,39.1,30.07,South,176,4.9,4.9,77,0.00,,CLR,0.00,VWS V15.00,2014-04-17 06:18:00,
2014-04-17 01:23:00,46.0,39.2,30.07,SW,236,5.4,8.3,77,0.00,,CLR,0.00,VWS V15.00,2014-04-17 06:23:00,
2014-04-17 01:28:00,46.0,39.2,30.07,SSE,148,5.4,11.0,77,0.00,,CLR,0.00,VWS V15.00,2014-04-17 06:28:00,
2014-04-17 01:34:00,46.0,39.2,30.07,South,171,7.6,8.3,77,0.00,,CLR,0.00,VWS V15.00,2014-04-17 06:34:00,
2014-04-17 01:39:00,46.2,39.4,30.07,SSW,197,8.1,8.1,77,0.00,,CLR,0.00,VWS V15.00,2014-04-17 06:39:00,
2014-04-17 01:44:00,46.2,39.4,30.07,South,177,8.7,8.7,77,0.00,,CLR,0.00,VWS V15.00,2014-04-17 06:44:00,
2014-04-17 01:49:00,46.2,39.4,30.07,South,191,5.4,8.1,77,0.00,,CLR,0.00,VWS V15.00,2014-04-17 06:49:00,
2014-04-17 01:54:00,46.0,39.2,30.07,SSE,159,10.5,10.5,77,0.00,,CLR,0.00,VWS V15.00,2014-04-17 06:54:00,
2014-04-17 01:59:00,46.0,39.2,30.07,SSE,158,8.3,11.9,77,0.00,,CLR,0.00,VWS V15.00,2014-04-17 06:59:00,
2014-04-17 02:04:00,46.0,39.2,30.07,SSE,157,5.4,10.5,77,0.00,,CLR,0.00,VWS V15.00,2014-04-17 07:04:00,
2014-04-17 02:09:00,46.0,39.2,30.07,SSE,159,8.3,9.2,77,0.00,,CLR,0.00,VWS V15.00,2014-04-17 07:09:00,
2014-04-17 02:14:00,45.9,39.1,30.07,SSW,213,11.0,11.0,77,0.00,,CLR,0.00,VWS V15.00,2014-04-17 07:14:00,
2014-04-17 02:19:00,45.9,39.1,30.07,South,182,13.2,13.2,77,0.00,,CLR,0.00,VWS V15.00,2014-04-17 07:19:00,
2014-04-17 02:24:00,45.9,39.1,30.07,SSW,204,6.3,7.2,77,0.00,,CLR,0.00,VWS V15.00,2014-04-17 07:24:00,
2014-04-17 02:29:00,45.9,39.1,30.07,South,176,5.4,5.4,77,0.00,,CLR,0.00,VWS V15.00,2014-04-17 07:29:00,
2014-04-17 02:34:00,45.7,38.9,30.07,SSE,149,7.6,8.1,77,0.00,,CLR,0.00,VWS V15.00,2014-04-17 07:34:00,
2014-04-17 02:39:00,45.7,38.9,30.07,South,186,8.7,8.7,77,0.00,,CLR,0.00,VWS V15.00,2014-04-17 07:39:00,
2014-04-17 02:44:00,45.5,38.7,30.07,SW,234,6.3,6.3,77,0.00,,CLR,0.00,VWS V15.00,2014-04-17 07:44:00,
2014-04-17 02:49:00,45.3,38.5,30.07,South,176,5.8,11.0,77,0.00,,CLR,0.00,VWS V15.00,2014-04-17 07:49:00,
2014-04-17 02:54:00,45.3,38.5,30.07,South,180,6.3,8.3,77,0.00,,CLR,0.00,VWS V15.00,2014-04-17 07:54:00,
2014-04-17 02:59:00,45.1,38.4,30.07,SW,221,6.3,6.3,77,0.00,,CLR,0.00,VWS V15.00,2014-04-17 07:59:00,
2014-04-17 03:04:00,45.1,38.4,30.07,SSE,166,8.7,8.7,77,0.00,,CLR,0.00,VWS V15.00,2014-04-17 08:04:00,
2014-04-17 03:09:00,45.0,38.2,30.07,SSE,153,8.7,10.1,77,0.00,,CLR,0.00,VWS V15.00,2014-04-17 08:09:00,
2014-04-17 03:14:00,44.8,38.0,30.07,SSE,166,5.8,6.7,77,0.00,,CLR,0.00,VWS V15.00,2014-04-17 08:14:00,
2014-04-17 03:19:00,44.6,37.8,30.07,South,176,7.6,9.6,77,0.00,,CLR,0.00,VWS V15.00,2014-04-17 08:19:00,
2014-04-17 03:24:00,44.6,37.8,30.07,WSW,237,5.8,8.7,77,0.00,,CLR,0.00,VWS V15.00,2014-04-17 08:24:00,
2014-04-17 03:30:00,44.6,37.8,30.07,SSE,168,6.7,6.7,77,0.00,,CLR,0.00,VWS V15.00,2014-04-17 08:30:00,
2014-04-17 03:35:00,44.6,37.8,30.07,SSE,163,6.3,8.7,77,0.00,,CLR,0.00,VWS V15.00,2014-04-17 08:35:00,
2014-04-17 03:40:00,44.6,37.8,30.07,South,178,5.8,7.6,77,0.00,,CLR,0.00,VWS V15.00,2014-04-17 08:40:00,
2014-04-17 03:45:00,44.6,37.8,30.07,SSW,192,5.4,8.3,77,0.00,,CLR,0.00,VWS V15.00,2014-04-17 08:45:00,
2014-04-17 03:50:00,44.4,38.8,30.07,SSW,212,7.6,8.1,80,0.00,,CLR,0.00,VWS V15.00,2014-04-17 08:50:00,
2014-04-17 03:55:00,44.2,38.6,30.07,South,183,3.1,4.0,80,0.00,,CLR,0.00,VWS V15.00,2014-04-17 08:55:00,
2014-04-17 04:00:00,44.1,38.5,30.07,SSE,167,4.9,5.8,80,0.00,,CLR,0.00,VWS V15.00,2014-04-17 09:00:00,
2014-04-17 04:05:00,44.1,38.5,30.07,South,178,6.3,6.3,80,0.00,,CLR,0.00,VWS V15.00,2014-04-17 09:05:00,
2014-04-17 04:10:00,43.9,38.3,30.07,South,191,3.6,4.9,80,0.00,,SCT095,0.00,VWS V15.00,2014-04-17 09:10:00,
2014-04-17 04:15:00,43.9,38.3,30.07,SSE,156,5.4,5.8,80,0.00,,SCT095,0.00,VWS V15.00,2014-04-17 09:15:00,
2014-04-17 04:20:00,43.9,38.3,30.07,SSW,206,6.3,6.3,80,0.00,,SCT095,0.00,VWS V15.00,2014-04-17 09:20:00,
2014-04-17 04:25:00,43.7,38.1,30.07,SSE,155,6.3,6.3,80,0.00,,SCT095,0.00,VWS V15.00,2014-04-17 09:25:00,
2014-04-17 04:26:00,43.7,38.1,30.07,SSW,194,5.4,6.3,80,0.00,,SCT095,0.00,VWS V15.00,2014-04-17 09:26:00,
2014-04-17 04:31:00,43.7,38.1,30.07,SSE,166,4.9,4.9,80,0.00,,SCT095,0.00,VWS V15.00,2014-04-17 09:31:00,
2014-04-17 04:36:00,43.7,38.1,30.07,South,187,5.4,6.3,80,0.00,,SCT095,0.00,VWS V15.00,2014-04-17 09:36:00,
2014-04-17 04:41:00,43.7,38.1,30.04,South,170,5.8,5.8,80,0.00,,SCT095,0.00,VWS V15.00,2014-04-17 09:41:00,
2014-04-17 04:46:00,43.7,38.1,30.04,South,191,4.0,4.0,80,0.00,,SCT095,0.00,VWS V15.00,2014-04-17 09:46:00,
2014-04-17 04:51:00,43.7,38.1,30.04,South,181,6.3,6.3,80,0.00,,CLR,0.00,VWS V15.00,2014-04-17 09:51:00,
2014-04-17 04:56:00,43.7,38.1,30.07,South,181,4.0,5.8,80,0.00,,CLR,0.00,VWS V15.00,2014-04-17 09:56:00,
2014-04-17 05:01:00,43.7,38.1,30.07,SSW,203,5.8,5.8,80,0.00,,CLR,0.00,VWS V15.00,2014-04-17 10:01:00,
2014-04-17 05:06:00,43.9,38.3,30.07,SSW,199,3.6,5.8,80,0.00,,CLR,0.00,VWS V15.00,2014-04-17 10:06:00,
2014-04-17 05:11:00,43.9,38.3,30.07,SSE,147,3.1,3.1,80,0.00,,CLR,0.00,VWS V15.00,2014-04-17 10:11:00,
2014-04-17 05:16:00,43.9,38.3,30.07,SSW,195,5.8,5.8,80,0.00,,CLR,0.00,VWS V15.00,2014-04-17 10:16:00,
2014-04-17 05:21:00,43.9,38.3,30.07,South,176,4.0,5.4,80,0.00,,CLR,0.00,VWS V15.00,2014-04-17 10:21:00,
2014-04-17 05:26:00,43.9,38.3,30.07,South,185,3.6,4.0,80,0.00,,CLR,0.00,VWS V15.00,2014-04-17 10:26:00,
2014-04-17 05:31:00,43.7,38.1,30.07,South,178,4.0,5.4,80,0.00,,CLR,0.00,VWS V15.00,2014-04-17 10:31:00,
2014-04-17 05:36:00,43.5,37.9,30.07,SSW,193,5.4,5.4,80,0.00,,CLR,0.00,VWS V15.00,2014-04-17 10:36:00,
2014-04-17 05:41:00,43.7,38.1,30.07,South,190,4.0,6.3,80,0.00,,CLR,0.00,VWS V15.00,2014-04-17 10:41:00,
2014-04-17 05:47:00,43.7,38.1,30.07,South,186,3.6,4.9,80,0.00,,CLR,0.00,VWS V15.00,2014-04-17 10:47:00,
2014-04-17 05:52:00,43.5,37.9,30.07,WSW,240,6.3,6.3,80,0.00,,CLR,0.00,VWS V15.00,2014-04-17 10:52:00,
2014-04-17 05:57:00,43.7,38.1,30.07,South,183,5.8,6.3,80,0.00,,CLR,0.00,VWS V15.00,2014-04-17 10:57:00,
2014-04-17 06:02:00,43.7,38.1,30.07,South,187,5.8,5.8,80,0.00,,CLR,0.00,VWS V15.00,2014-04-17 11:02:00,
2014-04-17 06:07:00,43.7,38.1,30.07,SSW,198,6.3,6.3,80,0.00,,CLR,0.00,VWS V15.00,2014-04-17 11:07:00,
2014-04-17 06:12:00,43.7,38.1,30.07,South,182,5.8,5.8,80,0.00,,CLR,0.00,VWS V15.00,2014-04-17 11:12:00,
2014-04-17 06:17:00,43.5,37.9,30.07,SSW,211,6.3,7.6,80,0.00,,CLR,0.00,VWS V15.00,2014-04-17 11:17:00,
2014-04-17 06:22:00,43.5,37.9,30.07,SSW,203,5.4,6.3,80,0.00,,CLR,0.00,VWS V15.00,2014-04-17 11:22:00,
2014-04-17 06:27:00,43.3,37.8,30.10,SW,218,4.0,5.8,80,0.00,,CLR,0.00,VWS V15.00,2014-04-17 11:27:00,
2014-04-17 06:32:00,43.3,37.8,30.10,SW,228,4.9,5.8,80,0.00,,CLR,0.00,VWS V15.00,2014-04-17 11:32:00,
2014-04-17 06:37:00,43.2,37.6,30.10,WSW,241,5.4,5.4,80,0.00,,CLR,0.00,VWS V15.00,2014-04-17 11:37:00,
2014-04-17 06:42:00,43.0,37.4,30.10,SSW,194,6.3,6.3,80,0.00,,CLR,0.00,VWS V15.00,2014-04-17 11:42:00,
2014-04-17 06:47:00,43.0,37.4,30.10,South,187,4.9,7.6,80,0.00,,CLR,0.00,VWS V15.00,2014-04-17 11:47:00,
2014-04-17 06:52:00,43.0,37.4,30.10,South,189,5.4,8.7,80,0.00,,CLR,0.00,VWS V15.00,2014-04-17 11:52:00,
2014-04-17 06:57:00,43.0,37.4,30.10,SSW,200,5.8,8.7,80,0.00,,CLR,0.00,VWS V15.00,2014-04-17 11:57:00,
2014-04-17 07:02:00,43.0,37.4,30.10,SSW,203,5.8,10.5,80,0.00,,CLR,0.00,VWS V15.00,2014-04-17 12:02:00,
2014-04-17 07:07:00,43.2,37.6,30.10,SSW,212,4.0,7.6,80,0.00,,CLR,0.00,VWS V15.00,2014-04-17 12:07:00,
2014-04-17 07:12:00,43.2,37.6,30.10,South,177,5.4,5.8,80,0.00,,CLR,0.00,VWS V15.00,2014-04-17 12:12:00,
2014-04-17 07:18:00,43.3,37.8,30.10,SW,217,2.7,5.8,80,0.00,,CLR,0.00,VWS V15.00,2014-04-17 12:18:00,
2014-04-17 07:23:00,43.5,37.9,30.13,SSW,213,4.0,6.3,80,0.00,,CLR,0.00,VWS V15.00,2014-04-17 12:23:00,
2014-04-17 07:28:00,43.7,38.1,30.13,SSW,200,4.0,5.4,80,0.00,,CLR,0.00,VWS V15.00,2014-04-17 12:28:00,
2014-04-17 07:33:00,44.1,38.5,30.13,SSW,200,4.0,8.3,80,0.00,,CLR,0.00,VWS V15.00,2014-04-17 12:33:00,
2014-04-17 07:38:00,44.2,38.6,30.13,SSE,166,3.1,5.8,80,0.00,,CLR,0.00,VWS V15.00,2014-04-17 12:38:00,
2014-04-17 07:43:00,44.4,38.8,30.13,SSW,212,5.8,5.8,80,0.00,,CLR,0.00,VWS V15.00,2014-04-17 12:43:00,
2014-04-17 07:48:00,44.8,38.0,30.13,WSW,248,3.6,7.6,77,0.00,,CLR,0.00,VWS V15.00,2014-04-17 12:48:00,
2014-04-17 07:53:00,45.0,38.2,30.13,South,189,3.6,5.4,77,0.00,,CLR,0.00,VWS V15.00,2014-04-17 12:53:00,
2014-04-17 07:58:00,45.3,38.5,30.13,South,186,7.6,7.6,77,0.00,,CLR,0.00,VWS V15.00,2014-04-17 12:58:00,
2014-04-17 08:03:00,45.9,39.1,30.13,SW,218,5.8,5.8,77,0.00,,CLR,0.00,VWS V15.00,2014-04-17 13:03:00,
2014-04-17 08:08:00,46.2,39.4,30.13,WSW,241,5.4,5.4,77,0.00,,CLR,0.00,VWS V15.00,2014-04-17 13:08:00,
2014-04-17 08:13:00,46.9,40.1,30.13,South,176,4.0,5.4,77,0.00,,CLR,0.00,VWS V15.00,2014-04-17 13:13:00,
2014-04-17 08:18:00,47.5,40.6,30.13,WSW,238,3.1,5.4,77,0.00,,CLR,0.00,VWS V15.00,2014-04-17 13:18:00,
2014-04-17 08:23:00,47.8,41.0,30.13,SW,216,5.4,6.3,77,0.00,,CLR,0.00,VWS V15.00,2014-04-17 13:23:00,
2014-04-17 08:28:00,48.2,40.1,30.13,WSW,241,6.3,6.3,74,0.00,,CLR,0.00,VWS V15.00,2014-04-17 13:28:00,
2014-04-17 08:33:00,48.6,40.5,30.13,WSW,241,4.0,4.0,74,0.00,,CLR,0.00,VWS V15.00,2014-04-17 13:33:00,
2014-04-17 08:38:00,48.9,40.8,30.13,WSW,248,5.4,6.3,74,0.00,,CLR,0.00,VWS V15.00,2014-04-17 13:38:00,
2014-04-17 08:43:00,49.1,41.0,30.13,WSW,244,5.4,5.4,74,0.00,,CLR,0.00,VWS V15.00,2014-04-17 13:43:00,
2014-04-17 08:48:00,49.3,41.2,30.13,SW,229,4.5,4.5,74,0.00,,,0.00,VWS V15.00,2014-04-17 13:48:00,
2014-04-17 08:54:00,49.8,41.7,30.13,WSW,255,2.7,4.9,74,0.00,,,0.00,VWS V15.00,2014-04-17 13:54:00,
2014-04-17 08:59:00,50.2,42.0,30.13,North,350,5.8,6.3,74,0.00,,,0.00,VWS V15.00,2014-04-17 13:59:00,
2014-04-17 09:04:00,50.2,42.0,30.13,NW,312,0.0,5.4,74,0.00,,CLR,0.00,VWS V15.00,2014-04-17 14:04:00,
2014-04-17 09:09:00,50.4,42.2,30.13,West,263,2.7,5.8,74,0.00,,CLR,0.00,VWS V15.00,2014-04-17 14:09:00,
2014-04-17 09:14:00,50.4,42.2,30.13,West,268,5.4,6.3,74,0.00,,CLR,0.00,VWS V15.00,2014-04-17 14:14:00,
2014-04-17 09:19:00,50.4,42.2,30.13,WNW,290,4.0,4.0,74,0.00,,CLR,0.00,VWS V15.00,2014-04-17 14:19:00,
2014-04-17 09:24:00,50.7,42.6,30.16,WSW,247,5.8,5.8,74,0.00,,CLR,0.00,VWS V15.00,2014-04-17 14:24:00,
2014-04-17 09:29:00,50.9,42.7,30.16,WSW,245,2.2,3.1,74,0.00,,CLR,0.00,VWS V15.00,2014-04-17 14:29:00,
2014-04-17 09:34:00,51.6,43.4,30.16,West,264,3.1,3.1,74,0.00,,CLR,0.00,VWS V15.00,2014-04-17 14:34:00,
2014-04-17 09:39:00,52.0,43.8,30.16,WSW,240,4.9,4.9,74,0.00,,CLR,0.00,VWS V15.00,2014-04-17 14:39:00,
2014-04-17 09:44:00,51.8,43.6,30.16,NW,310,4.9,5.4,74,0.00,,CLR,0.00,VWS V15.00,2014-04-17 14:44:00,
2014-04-17 09:49:00,51.4,43.3,30.16,WSW,252,0.0,0.0,74,0.00,,CLR,0.00,VWS V15.00,2014-04-17 14:49:00,
2014-04-17 09:54:00,51.3,43.1,30.16,NNW,346,0.0,0.0,74,0.00,,CLR,0.00,VWS V15.00,2014-04-17 14:54:00,